CDT,Max TemperatureF,Mean TemperatureF,Min TemperatureF,Max Dew PointF,MeanDew PointF,Min DewpointF,Max Humidity, Mean Humidity, Min Humidity, Max Sea Level PressureIn, Mean Sea Level PressureIn, Min Sea Level PressureIn, Max VisibilityMiles, Mean VisibilityMiles, Min VisibilityMiles, Max Wind SpeedMPH, Mean Wind SpeedMPH, Max Gust SpeedMPH,PrecipitationIn, CloudCover, Events, WindDirDegrees
2011-10-1,87,69,50,38,33,28,44,31,17,30.10,30.05,29.96,10,10,7,22,12,29,0.00,0,,162
2011-10-2,93,73,52,45,37,33,46,30,13,30.05,29.98,29.89,10,10,10,24,11,30,0.00,0,,191
2011-10-3,93,77,60,47,40,31,49,30,11,30.00,29.97,29.91,10,10,10,28,15,35,0.00,0,,203
2011-10-4,86,68,49,45,38,31,66,41,15,30.07,29.99,29.91,10,10,10,29,13,38,0.00,0,,193
2011-10-5,76,67,57,56,46,34,78,56,34,29.94,29.86,29.77,10,9,2,37,17,45,0.10,3,Rain,179
2011-10-6,81,70,59,59,57,55,87,66,45,29.84,29.66,29.52,10,10,7,38,24,52,0.00,2,,168
2011-10-7,85,76,66,61,57,50,68,51,33,29.79,29.68,29.62,10,10,9,31,19,41,0.07,2,Rain-Thunderstorm,167
2011-10-8,72,61,50,59,49,38,87,60,32,30.06,29.83,29.60,10,9,3,36,13,44,0.27,4,Rain-Thunderstorm,196
2011-10-9,62,53,44,45,41,40,86,67,48,30.11,30.05,30.00,10,10,10,18,8,23,0.00,0,,347
2011-10-10,78,60,41,54,45,38,100,64,27,30.08,29.97,29.81,10,8,0,24,13,31,0.00,2,Fog,194
2011-10-11,80,67,53,52,44,33,86,53,19,29.80,29.71,29.62,10,10,10,25,12,32,0.00,0,,205
2011-10-12,75,61,47,46,40,33,86,55,23,29.99,29.86,29.73,10,10,10,29,11,37,0.00,0,,342
2011-10-13,78,59,40,41,37,33,76,50,23,30.05,29.94,29.81,10,10,10,23,8,28,0.00,0,,203
2011-10-14,74,59,43,40,38,35,83,55,27,30.02,29.91,29.80,10,10,10,21,10,28,0.00,0,,39
2011-10-15,86,64,41,45,40,35,79,51,22,30.10,29.99,29.87,10,10,10,18,8,23,0.00,0,,216
2011-10-16,71,61,50,43,39,36,68,50,31,30.02,29.93,29.84,10,10,10,25,12,35,0.00,0,,50
2011-10-17,66,53,39,44,39,34,79,60,40,30.16,29.96,29.80,10,10,10,33,15,44,T,3,,3
2011-10-18,61,50,38,43,31,22,85,54,22,30.26,30.20,30.14,10,10,10,32,16,41,0.00,2,Rain,345
2011-10-19,64,52,39,26,25,23,59,41,22,30.23,30.11,30.01,10,10,10,15,7,21,0.00,0,,299
2011-10-20,70,52,33,30,27,23,64,44,23,30.04,29.97,29.91,10,10,10,10,3,14,0.00,0,,174
2011-10-21,79,58,37,33,30,28,64,40,16,30.12,30.03,29.97,10,10,10,13,5,17,0.00,0,,160
2011-10-22,77,59,40,42,36,31,70,48,25,30.03,29.99,29.93,10,10,10,9,2,13,0.00,0,,24
2011-10-23,83,65,46,35,32,28,61,38,15,30.06,30.01,29.94,10,10,10,20,6,23,0.00,0,,280
2011-10-24,88,65,42,46,37,30,62,39,16,30.04,29.92,29.76,10,10,10,36,18,45,0.00,0,,204
2011-10-25,85,69,53,38,34,25,54,33,11,29.85,29.78,29.71,10,10,10,25,14,31,0.00,0,,4
2011-10-26,53,43,33,39,35,32,71,65,59,30.22,30.09,29.87,10,9,1,24,16,30,0.18,7,Rain-Snow,16
2011-10-27,49,41,32,33,31,27,96,71,46,30.23,30.19,30.14,10,8,1,15,7,24,0.02,4,Snow,350
2011-10-28,60,46,31,32,26,21,92,58,24,30.31,30.25,30.21,10,10,10,14,5,17,0.00,0,,246
2011-10-29,70,53,36,39,34,29,82,53,23,30.19,29.99,29.80,10,10,10,26,10,32,0.00,0,,220
2011-10-30,64,51,38,34,29,27,65,45,25,30.21,30.12,29.92,10,10,10,16,8,23,0.00,0,,344
2011-10-31,79,58,37,37,32,28,70,43,16,30.14,29.96,29.81,10,10,10,29,12,38,0.00,0,,199